星链-3590 (STARLINK-3590 )

导读

STARLINK-3590是美国SpaceX公司星链星座的一员,于2022年3月3日发射升空,属于星链项目大规模组网中的一颗卫星。星链项目旨在通过近地轨道卫星星座构建全球高速卫星互联网,覆盖偏远地区、海洋及空中交通等场景,提供低延迟宽带服务。STARLINK-3590运行在近地轨道,为星链星座的全球覆盖能力提供支撑,不过星链大量卫星部署也引发了太空拥堵和天文观测干扰等争议。

Basic Information
目录编号:
51867
目录名称:
STARLINK-3590
国际标识:
2022-022R
轨道中心:
EARTH
卫星名称:
星链-3590
卫星全名:
星链-3590 (STARLINK-3590 )
卫星状态:
在轨 (已飞行1646 天)
发射日期:
2022-03-03 UTC
国别 :
美国 (US)
星等 :
--
Orbit Information
数据来源 国际轨道数据
星历时间: 2026-09-03T20:29:01+0800
15小时前
查看轨道信息
半长轴: 6837.871km
偏心率: 0.0001139
轨道倾角: 53.161°
近地点辐角 92.124°
升交点赤经 282.928°
平近点角 267.989°
近地点: 458.955km
远地点: 460.513km
周期: 93.787分钟
每日圈数: 15.353996
Detailed Information
固有亮度:
5
最大亮度:
2.5
卫星平台:
Starlink v1.5
覆盖范围:
全球
运营商:
太空探索技术公司
运营商所在国:
美国
制造商(研发单位):
太空探索技术公司
制造商所在国:
美国
使用方式:
暂无
Satellite Introduction
星链(Starlink)计划是由太空探索技术公司(SpaceX)提出的一个巨型低轨卫星互联网星座项目,计划在2019年至2024年间在太空搭建由约1.2万颗卫星组成的“星链”网络,其中1584颗将部署在地球上空550千米处的近地轨道,并从2020年开始工作。该卫星仍在工作。
2D Orbit Map
3D Orbit Map
Orbit Altitude Analysis Chart
Orbit Inclination Analysis Chart
Orbit Comprehensive Analysis Chart
View Comprehensive Chart
Conjunction Data List
Event ID Objects TCA Miss Dist (km) Collision Risk Probability Collision Risk Index (CRI) Action
CDM_260904-060605-186705-276322
2026-09-04T
06:06:48+0000
1.500 km
极远距离
6.195186E-6 低风险 0.51
CDM_260904-212305-186706-477621
2026-09-04T
21:23:44+0000
2.595 km
极远距离
1.44087E-6 低风险 0.38
CDM_260905-143905-186706-178721
2026-09-05T
14:39:28+0000
2.891 km
极远距离
1.38632E-6 低风险 0.38
CDM_260904-224005-186705-922021
2026-09-04T
22:40:05+0000
2.784 km
极远距离
1.225162E-6 低风险 0.37
CDM_260905-093705-186706-996621
2026-09-05T
09:37:23+0000
2.864 km
极远距离
1.201689E-6 低风险 0.37
CDM_260904-004205-186705-301121
2026-09-04T
00:42:09+0000
2.945 km
极远距离
9.443803E-7 极低风险 0.35
CDM_260904-082705-186706-033321
2026-09-04T
08:27:48+0000
2.987 km
极远距离
7.174768E-7 极低风险 0.32